Location: Newark
(57.4833°N, 18.5000°E)
Time: 06:28:21
(UTC+00:00)

N. Korean satellite - Visible Passes

Search period start: 28 February 2020 00:00
Search period end: 09 March 2020 00:00
Orbit: 456 x 505 km, 97.2° (Epoch: 27 February)

Date Brightness Start Highest point End Pass type
(mag) Time Alt. Az. Time Alt. Az. Time Alt. Az.
28 Feb 9.7 03:40:35 10° NE 03:43:17 19° E 03:45:56 10° SE visible
29 Feb 10.2 03:16:14 10° ENE 03:17:25 11° E 03:18:36 10° ESE visible
29 Feb 6.9 04:47:44 10° NNE 04:51:29 77° ESE 04:55:10 10° S visible
29 Feb 10.5 17:07:22 10° WSW 17:08:34 11° W 17:09:46 10° WNW visible
01 Mar 8.0 04:22:16 10° NNE 04:25:52 43° E 04:29:23 10° S visible
02 Mar 9.1 03:56:59 10° NE 04:00:09 25° E 04:03:15 10° SSE visible
03 Mar 9.9 03:32:01 10° NE 03:34:20 16° E 03:36:38 10° SE visible
04 Mar 7.2 04:38:55 10° NNE 04:42:37 63° ESE 04:46:15 10° S visible
05 Mar 8.5 04:13:30 10° NNE 04:16:57 36° E 04:20:21 10° SSE visible
06 Mar 9.5 03:48:17 10° NE 03:51:12 21° E 03:54:04 10° SE visible
07 Mar 10.0 03:23:33 10° NE 03:25:21 13° E 03:27:08 10° ESE visible
08 Mar 7.6 04:30:05 10° NNE 04:33:43 52° E 04:37:16 10° S visible
